Dewpoint
60 59 59 56 53 53 52 52 51 48 47 46 45 44 44 42 41 42 44 49 51 52 53 53 54 55 55 55 56 57 58 57 56 55 58 60 62 62 62 61 61 60 60
58 56 54 53 52 50 49 47 47 45 44 43 42 42 41 39 40 41 41 43 49 50 52 53 54 54 54 54 55 55 55 58 58 57 58 58 60 62 62 61 61 60 61
56 54 52 50 48 47 47 46 45 44 41 39 39 38 38 38 39 43 43 44 46 47 46 46 46 48 49 52 53 54 54 56 57 58 59 58 59 60 61 61 60 60 60
53 50 47 46 46 44 43 43 41 40 38 37 38 38 37 38 39 43 43 44 43 41 40 41 41 42 42 45 48 52 53 54 54 56 58 58 58 59 60 61 61 60 60
47 45 45 44 43 41 41 39 38 39 36 37 36 34 38 33 38 39 40 41 39 38 37 36 38 37 40 42 45 47 50 52 53 53 55 56 58 58 59 60 60 60 60
44 43 41 42 41 40 40 40 39 38 38 39 33 33 34 32 42 38 37 37 37 37 36 35 34 33 38 43 44 45 47 49 52 53 53 54 56 56 57 59 58 60 60
41 42 41 41 41 40 41 40 38 37 34 38 34 29 31 42 42 36 35 35 35 34 34 33 33 34 35 38 41 44 45 45 47 50 51 52 52 54 56 56 58 58 59
42 41 42 41 41 39 40 39 39 35 34 38 33 30 24 27 34 36 34 34 35 33 30 32 33 37 36 33 36 40 42 43 42 44 47 49 50 51 52 55 56 57 57
42 42 42 42 41 39 37 37 38 37 33 36 39 34 27 23 31 30 33 33 34 32 32 32 32 33 37 34 31 32 39 40 38 41 43 46 47 49 50 51 54 55 56
43 42 42 41 40 39 37 37 37 38 38 33 35 37 37 36 31 28 28 28 29 30 32 33 33 34 33 33 34 32 37 41 39 37 38 41 44 47 48 50 51 54 54
42 41 41 40 38 37 37 37 36 36 36 35 33 34 33 32 32 31 25 24 26 29 30 31 32 34 32 32 32 30 35 38 39 37 36 37 40 43 47 49 51 52 54
41 41 40 40 39 38 37 36 37 37 36 36 35 34 32 30 29 29 30 28 29 27 29 30 32 31 32 32 30 33 34 36 38 37 36 35 38 40 43 46 49 50 53
38 39 41 40 38 38 38 38 37 37 37 36 36 34 35 34 33 32 32 31 30 32 28 27 29 28 27 27 28 32 30 33 36 38 37 35 35 37 40 43 46 48 49
36 39 40 40 39 39 38 38 38 38 38 38 37 36 35 34 34 35 33 32 28 21 19 21 26 27 26 25 25 32 26 31 32 36 37 36 35 34 37 41 44 45 49
38 39 40 39 39 39 39 39 38 37 37 36 35 35 34 34 33 29 30 27 25 23 20 20 20 21 22 23 24 26 25 28 30 30 32 36 36 34 34 39 41 44 44
37 38 38 38 37 37 38 38 37 35 35 34 32 27 26 25 25 26 25 25 24 23 20 17 16 18 20 20 21 22 22 29 26 28 30 34 36 36 35 36 39 40 42
37 38 38 36 35 36 37 36 33 32 28 27 26 24 24 24 22 21 20 19 18 19 17 15 16 18 21 22 22 23 24 25 23 25 28 28 30 34 36 35 38 39 40
36 37 38 36 36 36 35 32 30 26 25 23 23 23 22 20 20 19 18 17 17 17 16 15 16 18 18 21 22 23 23 22 21 21 23 26 26 26 32 35 37 37 39
34 36 36 36 35 34 33 32 26 24 23 23 22 22 21 21 20 19 19 18 18 18 18 18 16 15 15 19 20 20 21 23 22 22 23 23 23 26 27 31 36 37 37
34 35 35 35 35 34 32 29 24 23 23 23 24 23 23 22 21 20 20 20 21 19 18 16 14 13 14 15 16 19 18 19 20 21 20 21 24 24 25 27 31 36 35
35 35 35 34 34 32 29 26 24 24 25 24 24 23 22 22 22 21 19 18 19 17 15 15 14 13 14 14 14 15 17 18 19 20 20 19 19 20 20 24 28 30 36
33 32 32 32 29 27 26 28 27 25 24 20 17 15 14 14 15 18 18 19 19 18 18 17 17 16 16 14 15 17 18 19 17 19 21 20 24 22 23 24 25 27 28
33 32 31 29 27 25 27 28 26 22 19 17 14 13 13 14 16 16 17 18 18 20 22 24 22 20 16 16 16 19 18 20 18 17 23 21 22 23 24 22 27 29 29
34 31 31 27 24 24 25 26 24 21 19 15 14 14 15 16 16 19 19 24 19 17 17 19 24 24 23 22 21 20 20 20 21 22 22 21 21 22 25 26 26 27 27
31 31 29 25 23 22 22 23 21 21 19 17 17 16 16 17 19 20 21 19 17 16 18 20 20 22 26 26 28 27 25 23 19 19 23 25 21 22 23 25 26 27 27
25 26 24 24 24 22 21 21 21 21 20 19 17 15 16 17 18 19 20 20 17 17 17 18 19 19 22 28 27 26 23 22 17 21 19 21 18 19 21 26 27 28 28
Wind_Speed
4 1 3 2 3 3 3 4 4 4 5 5 5 6 6 7 8 8 8 10 13 14 14 14 15 15 16 18 19 16 17 17 17 15 11 10 9 11 14 13 15 16 16
1 2 3 4 5 5 5 6 4 4 5 5 6 7 7 8 7 8 8 8 10 13 14 14 15 15 15 16 18 19 18 17 18 18 15 12 10 9 10 13 14 16 17
3 4 5 6 5 6 6 6 5 5 5 8 8 8 10 11 8 7 6 5 5 9 13 15 16 16 17 16 16 16 18 20 18 18 17 13 12 12 11 11 13 13 17
7 7 7 7 7 8 7 5 6 5 7 8 9 10 11 10 10 6 3 4 6 7 8 16 17 16 17 17 17 17 16 17 20 21 20 16 13 13 13 12 12 13 13
10 10 9 7 6 6 7 7 7 8 9 9 11 12 9 12 8 2 3 4 6 7 9 13 16 15 17 17 17 17 17 17 17 19 21 19 18 15 13 12 12 14 14
8 8 8 7 7 7 7 7 8 7 7 9 13 10 12 11 5 0 4 4 5 7 9 12 13 12 14 17 17 17 16 16 18 18 18 20 21 20 16 14 13 14 13
8 7 6 6 6 7 7 7 6 9 9 8 10 11 10 5 5 3 4 5 7 8 11 11 10 11 11 12 14 16 15 17 16 18 18 18 19 20 16 18 15 14 14
7 7 6 7 7 5 5 6 6 8 9 7 8 10 6 6 3 3 3 3 7 10 12 11 11 10 10 10 12 14 16 17 18 17 17 18 18 19 18 18 19 17 15
7 6 6 5 4 3 5 6 7 7 9 7 6 5 6 6 12 5 8 6 10 9 11 11 10 10 9 10 12 13 15 17 20 19 17 18 19 18 19 20 20 20 18
4 3 2 2 1 2 4 5 5 5 6 10 8 3 5 6 6 11 8 14 14 12 13 10 10 10 10 11 12 12 15 14 16 19 19 19 19 20 19 20 20 23 22
1 1 2 3 3 3 3 4 4 5 5 7 6 6 7 7 8 8 15 13 13 12 12 11 13 9 10 10 10 13 18 16 14 15 19 20 19 20 20 18 19 21 26
4 5 6 6 6 5 4 4 4 5 6 6 6 6 8 9 12 12 15 17 17 16 12 12 10 10 9 10 12 14 16 17 16 15 15 18 19 18 19 20 20 20 20
6 9 10 9 7 5 5 5 6 7 7 8 8 8 8 11 14 15 15 13 14 15 14 13 12 11 11 13 14 15 18 16 15 15 15 16 17 18 19 18 20 19 18
10 9 8 7 7 7 8 7 7 8 8 8 9 9 10 10 11 11 12 8 15 21 19 16 10 16 13 14 19 20 19 15 15 14 15 15 14 16 18 16 18 17 15
10 9 8 9 10 10 9 8 9 10 8 8 9 9 8 7 5 6 6 7 11 21 26 20 20 17 17 17 18 20 21 19 15 14 15 16 16 14 15 16 14 14 17
13 12 11 10 10 9 9 9 11 9 8 8 5 5 5 6 7 8 9 10 12 18 29 21 23 21 20 19 19 21 23 18 15 13 14 13 15 17 14 12 12 13 11
12 12 13 13 11 10 10 7 7 8 5 4 4 5 8 9 11 12 12 13 14 15 24 24 21 20 20 21 20 19 18 17 16 11 12 14 14 15 14 9 8 6 7
13 14 13 11 10 9 8 6 9 3 2 4 6 9 13 12 14 13 13 15 15 16 19 24 23 22 20 18 20 19 18 18 17 13 14 15 16 16 13 11 7 6 4
14 12 8 8 7 6 2 3 3 2 1 5 9 12 14 14 16 14 15 16 17 17 19 20 24 20 20 17 19 19 18 18 16 16 16 16 15 14 15 12 11 7 7
11 9 5 4 5 5 2 4 2 1 4 7 10 13 14 15 16 18 18 19 18 18 18 21 23 22 19 17 17 18 18 17 17 14 13 14 17 18 18 16 12 15 13
8 9 8 7 1 4 4 3 1 4 7 10 12 13 14 15 19 18 17 19 19 20 20 21 22 21 19 17 17 15 17 16 17 15 16 16 13 12 12 14 11 8 15
6 4 4 2 2 3 4 4 4 6 8 10 13 15 16 16 14 17 18 19 19 20 20 20 20 21 22 19 17 16 16 16 16 12 13 12 5 10 9 10 6 8 8
6 6 5 4 4 2 3 5 5 5 8 10 13 14 15 13 15 15 16 17 18 19 20 21 22 22 22 20 19 17 16 16 17 15 12 15 12 13 11 10 9 9 9
10 10 7 3 3 2 3 3 2 5 8 11 12 13 15 15 15 16 18 17 16 18 18 17 19 20 21 20 20 19 19 18 17 16 13 11 12 14 10 10 11 14 15
12 10 5 5 3 2 1 1 4 7 10 12 12 14 15 15 15 20 20 18 18 18 14 17 21 22 24 24 22 18 16 15 16 16 12 11 12 12 10 12 11 12 16
7 3 5 3 2 2 0 2 5 7 11 13 13 14 13 14 19 20 18 16 17 17 18 19 17 17 16 14 15 16 17 15 15 13 9 9 12 8 5 3 3 3 7
Wind_Direction
311 32 85 59 56 57 52 62 57 61 52 41 24 12 3 352 343 334 323 346 349 347 345 339 332 326 320 314 312 308 281 282 291 297 291 288 291 300 303 285 257 250 242
48 63 92 89 63 55 63 58 55 32 15 12 2 354 347 342 339 336 326 325 13 23 22 16 6 359 349 336 327 315 308 289 282 288 292 285 277 271 278 291 278 259 248
92 89 87 75 68 67 49 61 28 21 9 347 346 338 332 329 329 331 336 341 354 46 31 21 12 7 3 359 348 333 316 306 293 274 276 279 277 274 267 262 273 274 263
92 94 88 75 76 60 58 34 20 356 351 338 332 327 319 316 322 327 6 25 17 1 359 9 4 0 356 351 348 346 334 323 311 302 275 267 268 267 266 265 268 268 266
97 98 90 84 66 61 39 16 9 357 340 340 333 322 312 311 305 307 37 45 28 9 354 351 351 349 349 345 341 339 336 333 321 311 302 283 261 257 254 255 260 260 255
93 95 88 72 53 46 34 19 7 355 341 343 327 312 309 301 289 48 13 21 17 8 0 349 338 332 339 342 339 334 331 333 335 328 312 318 313 273 251 245 253 254 258
73 75 76 68 53 46 41 24 355 346 336 333 314 311 294 269 179 314 355 3 3 2 356 353 342 334 332 338 343 340 341 333 325 334 327 317 310 314 302 253 246 245 246
68 67 60 55 47 37 27 10 358 336 322 339 327 308 308 264 274 270 341 358 2 344 352 353 347 342 339 341 351 349 349 344 341 328 323 326 318 307 301 302 253 245 241
60 64 68 68 63 26 356 345 342 344 329 327 342 306 307 296 327 297 313 321 333 333 335 333 339 339 330 333 342 341 351 349 350 345 331 331 325 317 300 289 284 243 237
62 65 99 116 84 340 332 334 341 341 329 320 322 302 307 306 295 298 293 307 313 310 321 323 321 315 326 325 327 334 336 334 340 345 345 333 327 321 306 295 286 258 236
345 246 217 222 275 297 309 315 322 324 315 301 303 309 308 293 281 268 298 305 291 297 303 307 317 309 315 319 319 328 329 325 324 334 340 341 333 323 322 313 296 283 244
277 251 246 255 266 266 274 281 288 291 293 275 269 270 275 293 295 296 297 300 301 296 293 299 294 305 310 313 315 320 321 325 318 323 333 342 339 330 323 316 309 295 277
265 257 244 252 276 285 282 271 266 273 273 270 278 283 279 284 292 295 294 287 287 294 293 294 292 288 302 307 303 309 310 310 314 309 318 329 336 335 324 325 319 308 288
271 269 262 272 273 260 251 251 262 277 280 275 277 283 289 289 297 290 294 298 298 296 295 294 291 291 288 289 300 298 297 297 302 301 301 311 320 332 331 323 330 338 312
284 292 278 271 267 265 271 272 272 282 278 290 292 294 297 307 306 300 290 290 297 295 293 299 295 286 287 293 291 290 290 284 292 309 309 299 298 312 327 321 333 336 355
302 292 282 276 279 284 280 277 277 286 286 286 286 295 306 309 305 300 291 291 289 284 288 293 293 297 294 291 291 286 280 273 277 295 309 314 303 289 301 316 314 337 331
303 290 280 277 277 279 278 259 272 284 270 280 291 306 304 307 302 300 297 292 288 285 285 294 293 294 291 291 292 288 277 267 274 274 290 302 310 326 269 292 286 320 327
310 295 292 290 290 286 285 290 270 242 299 297 310 305 301 305 298 297 297 296 294 290 289 293 295 295 294 298 292 290 281 276 276 281 287 292 292 296 316 264 261 254 235
322 318 303 296 297 285 253 249 242 152 277 313 306 301 302 302 298 301 302 298 294 292 290 291 292 296 292 288 293 291 281 276 270 276 274 276 280 289 292 305 237 216 244
327 329 324 307 309 330 10 246 180 13 319 309 304 301 303 301 302 305 304 298 297 290 290 289 289 292 292 292 289 287 281 276 274 277 276 273 281 283 280 279 288 236 207
328 316 319 327 22 145 198 214 39 323 318 312 309 311 307 310 307 304 300 299 299 293 291 290 290 292 292 291 286 287 286 282 280 282 280 279 282 278 272 245 261 264 239
326 1 6 322 268 299 118 76 354 331 323 318 318 315 314 314 314 312 304 296 294 292 290 287 287 286 286 285 285 282 280 280 277 283 276 277 269 288 281 257 262 282 290
292 301 295 280 273 152 68 63 48 334 325 324 322 321 319 319 315 315 308 295 286 283 279 284 286 283 286 283 284 283 276 275 276 276 268 280 277 276 274 262 260 282 285
296 299 285 245 186 110 75 82 31 329 323 326 326 322 319 317 316 312 306 311 312 302 300 297 293 286 282 278 273 272 276 279 279 270 261 266 271 268 271 263 252 259 263
301 285 246 192 198 189 50 100 333 321 324 326 323 323 320 319 320 312 318 314 312 310 310 306 301 295 299 286 268 270 260 256 267 266 226 235 268 272 274 268 261 244 241
297 221 173 193 199 243 271 326 319 317 322 323 322 324 322 324 319 322 323 321 315 318 322 317 312 308 306 305 271 262 266 261 259 277 235 241 261 252 254 203 212 181 216